Weather History for KBDL - November, 2011

Change the Weather History Date:

Saturday, November 19, 2011

  Actual Average Record
Temperature  
Mean Temperature 43 °F 41 °F  
Max Temperature 53 °F 50 °F 71 °F (1941)
Min Temperature 32 °F 33 °F 12 °F (1924)
Degree Days  
Heating Degree Days 22 24  
Month to date heating degree days 351 394  
Since 1 July heating degree days 760 923  
Cooling Degree Days 0 0  
Month to date cooling degree days 0 0  
Year to date cooling degree days 935 756  
Moisture  
Dew Point 24 °F    
Average Humidity 53    
Maximum Humidity 79    
Minimum Humidity 26    
Precipitation  
Precipitation 0.00 in 0.14 in 1.08 in (1945)
Month to date precipitation 1.14 2.43  
Year to date precipitation 61.56 40.95  
Snow  
Snow 0.00 in 0.10 in 4.50 in (1986)
Month to date snowfall 0.0 0.9  
Since 1 July snowfall 12.3 0.9  
Since 1 September snowfall 12.3 0.9  
Snow Depth 0.00 in    
Sea Level Pressure  
Sea Level Pressure 30.32 in    
Wind  
Wind Speed 10 mph (South)    
Max Wind Speed 23 mph    
Max Gust Speed 30 mph    
Visibility 10 miles    
Events      
T = Trace of Precipitation, MM = Missing Value Source: NWS Daily Summary

Daily Weather History Graph

Daily Weather History Graph

Search for Another Location

Airport or City:

Trip Planner

Search our weather history database for the weather conditions in past years. The results will help you decide how hot, cold, wet, or windy it might be!

Date:

Astronomy

Nov. 19, 2011 Rise Set
Actual Time 6:44 AM EST 4:26 PM EST
Civil Twilight 6:14 AM EST 4:57 PM EST
Nautical Twilight 5:40 AM EST 5:31 PM EST
Astronomical Twilight 5:07 AM EST 6:04 PM EST
Moon No Moon Rise 12:48 PM EST (11/19)
Length of Visible Light 10h 42m
Length of Day
9h 41m
Last Quarter, 38% of the Moon is Illuminated
Nov 19
Last Quarter
Nov 25
New
Dec 2
First Quarter
Dec 10
Full
Dec 17
Last Quarter

Hourly Weather History & Observations

Time (EST) Temp. Windchill Dew Point Humidity Pressure Visibility Wind Dir Wind Speed Gust Speed Precip Events Conditions
12:51 AM 34.0 °F 28.0 °F 21.9 °F 61% 30.39 in 10.0 mi South 6.9 mph - N/A   Partly Cloudy
1:51 AM 32.0 °F 24.8 °F 21.9 °F 66% 30.39 in 10.0 mi South 8.1 mph - N/A   Partly Cloudy
2:51 AM 33.1 °F 26.9 °F 21.0 °F 61% 30.38 in 10.0 mi South 6.9 mph - N/A   Clear
3:51 AM 34.0 °F 26.6 °F 21.0 °F 59% 30.38 in 10.0 mi South 9.2 mph - N/A   Partly Cloudy
4:51 AM 33.1 °F 26.1 °F 21.0 °F 61% 30.38 in 10.0 mi SSE 8.1 mph - N/A   Scattered Clouds
5:51 AM 34.0 °F 26.6 °F 21.0 °F 59% 30.38 in 10.0 mi SSE 9.2 mph - N/A   Partly Cloudy
6:51 AM 34.0 °F 27.2 °F 21.0 °F 59% 30.39 in 10.0 mi SSE 8.1 mph - N/A   Mostly Cloudy
7:51 AM 36.0 °F 30.3 °F 21.9 °F 57% 30.39 in 10.0 mi SSE 6.9 mph - N/A   Mostly Cloudy
8:51 AM 39.9 °F 32.9 °F 23.0 °F 51% 30.39 in 10.0 mi SSW 11.5 mph - N/A   Mostly Cloudy
9:51 AM 44.1 °F 36.5 °F 21.9 °F 42% 30.39 in 10.0 mi SSW 17.3 mph 23.0 mph N/A   Mostly Cloudy
10:51 AM 46.9 °F - 21.9 °F 37% 30.37 in 10.0 mi SSW 16.1 mph 25.3 mph N/A   Mostly Cloudy
11:51 AM 50.0 °F - 21.9 °F 33% 30.34 in 10.0 mi SSW 13.8 mph - N/A   Mostly Cloudy
12:51 PM 52.0 °F - 21.0 °F 30% 30.31 in 10.0 mi SW 11.5 mph - N/A   Mostly Cloudy
1:51 PM 52.0 °F - 19.0 °F 27% 30.29 in 10.0 mi South 13.8 mph - N/A   Mostly Cloudy
2:51 PM 52.0 °F - 17.1 °F 25% 30.28 in 10.0 mi SSW 16.1 mph - N/A   Mostly Cloudy
3:51 PM 50.0 °F - 21.0 °F 32% 30.28 in 10.0 mi South 13.8 mph 19.6 mph N/A   Mostly Cloudy
4:51 PM 48.0 °F - 24.1 °F 39% 30.27 in 10.0 mi South 12.7 mph - N/A   Mostly Cloudy
5:51 PM 46.0 °F 40.6 °F 26.1 °F 46% 30.27 in 10.0 mi South 11.5 mph - N/A   Mostly Cloudy
6:51 PM 44.1 °F 40.1 °F 28.0 °F 53% 30.28 in 10.0 mi South 6.9 mph - N/A   Overcast
7:51 PM 43.0 °F 37.7 °F 30.0 °F 60% 30.27 in 10.0 mi SSE 9.2 mph - N/A   Mostly Cloudy
8:51 PM 42.1 °F 37.7 °F 30.0 °F 62% 30.26 in 10.0 mi SSE 6.9 mph - N/A   Overcast
9:51 PM 43.0 °F 39.5 °F 33.1 °F 68% 30.25 in 10.0 mi South 5.8 mph - N/A   Mostly Cloudy
10:51 PM 39.9 °F - 33.1 °F 77% 30.24 in 10.0 mi Calm Calm - N/A   Mostly Cloudy
11:51 PM 43.0 °F 39.5 °F 37.0 °F 80% 30.22 in 10.0 mi SSE 5.8 mph - N/A   Mostly Cloudy